Terminal Aerodrome Forecast
Issued by NWS

Home | Current Version | Previous Version | Text Only | Print | Product List | Glossary On
Versions: 1 2 3 4 5 6 7 8 9 10 11 12 13 14 15 16 17 18 19 20 21 22 23 24 25 26
408
FTUS42 KJAX 230541
TAFCRG
TAF
KCRG 230541Z 2306/2406 06008KT P6SM VCSH SCT008 BKN015 OVC030
     FM231200 05012G25KT P6SM VCSH SCT010 BKN020 OVC030
     FM231500 06017G30KT P6SM VCSH SCT020 BKN030 OVC150
     FM231800 05016G28KT P6SM SCT020 BKN040
     FM240000 04010KT P6SM SCT020 BKN040=

USA.gov is the U.S. government's official web portal to all federal, state and local government web resources and services.